Date String (YYYY-MM-DD hh:mm:ss) UTC,Instrument flags,Ambient pressure (hPa),Sample flow (lpm),Bypass flow (lpm),Sample temperature (°C),Ambient temperature (°C),ASC tube jacket temperature (°C),LED temperature (°C),Box temperature (°C),Sample RH (%),Span deviation,Mass concentration (μg/m³),Mass concentration (μg/m³),Mass concentration (μg/m³)
DateTimeUTC,F1_M11,P_M11,Q1_M11,Q2_M11,T1_M11,T2_M11,T3_M11,T4_M11,T5_M11,U1_M11,ZSPAN_M11,X0_M11,X2_M11,X1_M11
2022-07-20 20:00:00,,0829.2,5.01,0.00,29.3,27.7,00.0,37.9,31.2,25.0,0000.0,0016.81,0006.39,0005.00
2022-07-20 20:01:00,,0829.2,5.01,0.00,29.3,27.1,00.0,37.9,31.1,25.2,0000.0,0018.19,0006.41,0004.97
2022-07-20 20:02:00,,0829.3,5.00,0.00,29.2,27.0,00.0,37.8,31.1,25.2,0000.0,0018.30,0006.44,0004.95
2022-07-20 20:03:00,,0829.1,5.00,0.00,29.2,27.0,00.0,37.8,31.0,24.5,0000.0,0019.19,0006.42,0004.92
2022-07-20 20:04:00,,0829.0,4.99,0.00,29.2,27.2,00.0,37.9,31.0,24.4,0000.0,0019.21,0006.38,0004.89
2022-07-20 20:05:00,,0829.1,5.00,0.00,29.2,27.4,00.0,37.9,31.1,24.1,0000.0,0019.45,0006.34,0004.87
2022-07-20 20:06:00,,0828.9,5.01,0.00,29.2,27.6,00.0,37.9,31.1,23.8,0000.0,0019.17,0006.30,0004.84
2022-07-20 20:07:00,,0829.1,5.00,0.00,29.2,27.9,00.0,37.9,31.2,24.2,0000.0,0018.91,0006.33,0004.84
2022-07-20 20:08:00,,0828.8,4.99,0.00,29.3,28.0,00.0,37.9,31.3,24.3,0000.0,0018.64,0006.36,0004.84
2022-07-20 20:09:00,,0829.1,5.00,0.00,29.3,27.5,00.0,37.9,31.2,24.2,0000.0,0018.89,0006.41,0004.85
2022-07-20 20:10:00,,0829.0,5.02,0.00,29.2,27.1,00.0,37.8,31.1,24.4,0000.0,0019.19,0006.42,0004.87
2022-07-20 20:11:00,,0828.5,5.00,0.00,29.2,27.1,00.0,37.8,31.1,25.4,0000.0,0018.77,0006.46,0004.89
2022-07-20 20:12:00,,0828.4,4.99,0.00,29.2,27.2,00.0,37.8,31.0,25.7,0000.0,0017.71,0006.55,0004.94
2022-07-20 20:13:00,,0828.4,5.00,0.00,29.2,27.4,00.0,37.9,31.0,25.5,0000.0,0017.04,0006.61,0004.99
2022-07-20 20:14:00,,0828.4,5.00,0.00,29.2,27.6,00.0,37.9,31.1,25.9,0000.0,0015.38,0006.62,0005.04
2022-07-20 20:15:00,,0828.4,4.99,0.00,29.2,27.8,00.0,37.9,31.2,26.2,0000.0,0016.04,0006.68,0005.10
2022-07-20 20:16:00,,0828.5,5.01,0.00,29.2,28.0,00.0,37.9,31.3,25.8,0000.0,0016.69,0006.75,0005.15
2022-07-20 20:17:00,,0828.4,4.99,0.00,29.3,27.8,00.0,37.9,31.3,25.3,0000.0,0016.70,0006.79,0005.21
2022-07-20 20:18:00,,0828.4,5.01,0.00,29.3,27.2,00.0,37.8,31.2,25.7,0000.0,0017.37,0006.81,0005.25
2022-07-20 20:19:00,,0828.4,4.99,0.00,29.2,27.0,00.0,37.8,31.1,24.6,0000.0,0019.21,0006.83,0005.28
2022-07-20 20:20:00,,0828.4,4.99,0.00,29.2,27.1,00.0,37.8,31.0,25.3,0000.0,0020.26,0006.86,0005.29
2022-07-20 20:21:00,,0828.4,5.00,0.00,29.2,27.2,00.0,37.8,31.0,25.3,0000.0,0019.65,0006.86,0005.32
2022-07-20 20:22:00,,0828.5,5.01,0.00,29.2,27.4,00.0,37.9,31.1,24.9,0000.0,0019.90,0006.89,0005.33
2022-07-20 20:23:00,,0828.4,5.00,0.00,29.2,27.6,00.0,37.9,31.1,25.4,0000.0,0019.91,0006.80,0005.30
2022-07-20 20:24:00,,0828.4,4.99,0.00,29.2,27.9,00.0,37.9,31.2,25.3,0000.0,0020.13,0006.69,0005.28
2022-07-20 20:25:00,,0828.4,5.00,0.00,29.3,28.0,00.0,37.9,31.3,24.8,0000.0,0020.95,0006.69,0005.26
2022-07-20 20:26:00,,0828.4,5.00,0.00,29.3,27.6,00.0,37.9,31.2,24.9,0000.0,0021.39,0006.69,0005.23
2022-07-20 20:27:00,,0828.3,4.99,0.00,29.2,27.0,00.0,37.8,31.1,24.5,0000.0,0021.32,0006.66,0005.19
2022-07-20 20:28:00,,0828.3,5.01,0.00,29.2,27.0,00.0,37.8,31.1,24.8,0000.0,0021.24,0006.65,0005.16
2022-07-20 20:29:00,,0828.3,4.99,0.00,29.2,27.1,00.0,37.8,31.0,25.1,0000.0,0021.07,0006.58,0005.13
2022-07-20 20:30:00,,0828.3,5.01,0.00,29.1,27.3,00.0,37.8,31.0,24.9,0000.0,0020.17,0006.62,0005.12
2022-07-20 20:31:00,,0828.3,4.99,0.00,29.2,27.5,00.0,37.9,31.1,24.6,0000.0,0019.68,0006.60,0005.11
2022-07-20 20:32:00,,0828.3,5.00,0.00,29.2,27.7,00.0,37.9,31.1,24.3,0000.0,0019.74,0006.61,0005.09
2022-07-20 20:33:00,,0828.3,4.99,0.00,29.2,27.9,00.0,37.9,31.2,24.7,0000.0,0019.78,0006.53,0005.06
2022-07-20 20:34:00,,0828.3,5.01,0.00,29.3,27.8,00.0,37.9,31.3,25.0,0000.0,0019.85,0006.56,0005.06
2022-07-20 20:35:00,,0828.4,5.00,0.00,29.2,27.2,00.0,37.8,31.2,25.2,0000.0,0020.05,0006.55,0005.04
2022-07-20 20:36:00,,0828.4,5.00,0.00,29.2,27.0,00.0,37.8,31.1,25.8,0000.0,0020.69,0006.56,0005.04
2022-07-20 20:37:00,,0828.4,4.99,0.00,29.2,27.0,00.0,37.8,31.0,26.0,0000.0,0021.29,0006.54,0005.05
2022-07-20 20:38:00,,0828.5,5.00,0.00,29.1,27.2,00.0,37.8,31.0,26.1,0000.0,0021.25,0006.50,0005.06
2022-07-20 20:39:00,,0828.5,5.00,0.00,29.1,27.4,00.0,37.8,31.0,26.0,0000.0,0022.38,0006.53,0005.07
2022-07-20 20:40:00,,0828.5,5.01,0.00,29.2,27.6,00.0,37.9,31.1,26.2,0000.0,0023.25,0006.65,0005.08
2022-07-20 20:41:00,,0828.5,5.00,0.00,29.2,27.8,00.0,37.9,31.2,26.0,0000.0,0023.12,0006.68,0005.10
2022-07-20 20:42:00,,0828.5,5.01,0.00,29.2,28.0,00.0,37.9,31.2,25.8,0000.0,0023.31,0006.79,0005.13
2022-07-20 20:43:00,,0828.5,5.01,0.00,29.3,27.9,00.0,37.9,31.3,25.8,0000.0,0024.37,0006.84,0005.16
2022-07-20 20:44:00,,0828.5,5.00,0.00,29.3,27.3,00.0,37.8,31.2,25.9,0000.0,0025.04,0006.91,0005.19
2022-07-20 20:45:00,,0828.5,5.00,0.00,29.2,27.0,00.0,37.8,31.1,25.8,0000.0,0026.03,0006.91,0005.20
2022-07-20 20:46:00,,0828.5,5.00,0.00,29.2,27.1,00.0,37.8,31.0,26.2,0000.0,0026.40,0006.92,0005.20
2022-07-20 20:47:00,,0828.4,4.99,0.00,29.2,27.2,00.0,37.8,31.0,26.5,0000.0,0025.33,0006.92,0005.20
2022-07-20 20:48:00,,0828.3,5.00,0.00,29.2,27.4,00.0,37.8,31.1,26.6,0000.0,0024.03,0006.91,0005.20
2022-07-20 20:49:00,,0828.3,5.00,0.00,29.2,27.6,00.0,37.9,31.1,26.7,0000.0,0023.24,0006.98,0005.20
2022-07-20 20:50:00,,0828.3,5.01,0.00,29.2,27.8,00.0,37.9,31.2,26.0,0000.0,0021.83,0006.91,0005.21
2022-07-20 20:51:00,,0828.3,4.99,0.00,29.2,28.0,00.0,37.9,31.3,25.6,0000.0,0020.98,0006.82,0005.22
2022-07-20 20:52:00,,0828.3,5.00,0.00,29.3,27.6,00.0,37.9,31.2,25.7,0000.0,0021.19,0006.79,0005.23
2022-07-20 20:53:00,,0828.3,5.00,0.00,29.2,27.0,00.0,37.8,31.1,25.5,0000.0,0020.21,0006.72,0005.22
2022-07-20 20:54:00,,0828.3,5.01,0.00,29.2,27.0,00.0,37.8,31.1,26.2,0000.0,0019.33,0006.74,0005.22
2022-07-20 20:55:00,,0828.2,5.00,0.00,29.2,27.1,00.0,37.8,31.0,26.4,0000.0,0019.70,0006.71,0005.23
2022-07-20 20:56:00,,0828.2,5.00,0.00,29.1,27.2,00.0,37.8,31.0,26.1,0000.0,0020.12,0006.76,0005.23
2022-07-20 20:57:00,,0828.2,5.00,0.00,29.1,27.5,00.0,37.9,31.1,25.5,0000.0,0020.27,0006.79,0005.23
2022-07-20 20:58:00,,0828.2,5.01,0.00,29.2,27.7,00.0,37.9,31.1,25.7,0000.0,0022.59,0006.86,0005.23
2022-07-20 20:59:00,,0828.2,4.99,0.00,29.2,27.9,00.0,37.9,31.2,24.4,0000.0,0023.41,0006.85,0005.20
